GEFSGL_500_meanwind_000.txt.gz
Wind_Speed
29 30 31 30 31 31 31 32 33 34 34 33 33 34 32 31 31 31 31 28 27 27 28 28 28 25 23 20 18 15 14 15 13 9 12 9 8 8 7 5 9 13 14
30 30 33 33 33 32 31 32 33 33 33 31 32 31 30 29 28 29 29 28 28 27 28 29 30 29 26 24 22 18 14 14 11 7 8 6 12 13 9 6 8 13 16
32 32 34 37 36 34 34 34 31 29 28 29 25 27 29 28 27 26 25 25 26 25 26 27 30 31 28 26 24 18 13 11 11 7 7 9 14 16 10 10 10 11 16
31 31 32 34 34 32 31 30 30 27 26 27 25 25 24 22 21 22 22 21 21 25 26 23 23 24 24 23 21 19 16 14 14 12 8 12 12 11 11 12 14 12 15
31 31 32 31 31 31 31 31 32 30 25 23 25 25 23 25 25 22 21 22 26 28 25 25 23 22 22 21 20 19 18 17 16 13 13 13 10 8 11 12 15 18 19
31 33 31 30 29 28 29 31 33 32 27 23 22 19 16 18 19 19 22 24 28 28 25 25 25 24 24 23 21 21 21 21 20 17 17 15 13 14 12 12 16 17 23
31 34 36 33 29 26 26 29 31 30 26 24 25 20 17 20 21 21 21 21 21 22 24 23 23 22 22 22 22 22 22 24 26 23 20 20 17 16 17 15 17 16 11
34 33 35 34 32 30 29 31 33 33 29 27 26 25 23 24 25 25 26 24 22 21 21 21 21 21 21 22 23 24 24 24 25 25 24 23 21 21 20 18 15 11 12
33 32 34 33 33 34 34 32 36 40 36 30 31 31 28 26 27 28 29 29 28 25 23 23 22 22 23 22 23 26 29 29 28 29 28 26 24 24 24 22 19 16 15
27 27 28 33 31 28 28 31 38 43 42 39 38 37 32 30 31 32 31 30 29 27 26 25 26 27 26 25 26 28 30 31 31 32 31 29 28 27 27 26 22 21 20
22 22 21 22 24 22 22 28 34 35 34 35 38 38 33 31 32 35 35 34 32 30 30 30 31 31 30 30 30 29 29 30 31 32 32 30 29 28 27 25 24 23 22
17 21 24 25 22 20 22 30 37 38 38 36 33 32 31 31 31 35 39 40 38 36 34 34 35 34 34 34 32 31 29 28 28 30 31 30 29 29 29 27 27 27 27
13 16 21 26 22 21 23 25 26 26 26 28 28 29 32 32 34 38 40 42 39 38 38 38 38 37 36 35 34 33 31 30 30 29 29 28 27 28 28 27 27 28 28
18 18 21 26 28 29 29 25 23 21 21 21 22 25 28 30 32 35 39 40 39 38 37 39 40 39 37 34 33 33 33 32 33 32 31 30 29 29 29 29 28 27 27
26 28 32 31 31 31 30 29 25 24 26 25 25 24 22 26 28 29 33 36 39 40 39 38 39 39 37 35 35 35 36 36 35 35 34 33 33 33 34 34 32 31 30
35 37 37 35 35 31 32 33 33 31 27 27 32 33 30 30 35 35 37 39 39 40 39 38 40 42 43 43 42 41 40 39 38 38 37 37 37 37 37 37 35 34 34
38 38 37 37 37 35 32 32 33 33 30 31 36 41 42 42 42 41 42 44 42 43 45 44 43 43 45 48 48 46 44 43 42 41 40 41 42 41 40 39 38 38 38
36 38 39 39 42 43 40 35 34 34 33 36 37 37 41 43 45 47 48 48 46 43 43 44 44 44 44 46 48 47 47 49 46 43 42 42 43 43 43 42 41 40 40
33 36 39 40 37 39 39 40 41 39 38 39 39 40 42 44 47 51 53 54 53 53 53 51 49 48 48 48 48 47 45 46 46 44 41 40 41 42 43 43 43 43 44
28 31 34 36 35 33 31 33 36 39 41 42 44 44 44 45 48 52 54 55 53 51 49 49 50 49 49 49 48 47 47 45 44 45 46 46 46 42 43 46 47 47 47
28 30 31 32 33 35 37 38 37 37 39 41 43 46 46 46 47 47 47 48 47 46 45 45 45 46 46 45 45 46 46 45 46 47 47 47 46 45 43 44 46 49 50
27 28 30 32 34 36 38 39 40 40 40 39 40 42 44 46 47 49 51 50 50 48 47 46 46 45 45 46 47 48 49 49 49 49 48 47 48 48 46 45 45 47 49
28 30 32 34 36 39 40 39 40 41 43 44 44 44 45 46 46 48 50 51 52 51 51 50 49 48 47 46 46 47 47 48 47 46 47 48 49 48 49 50 48 47 48
30 33 34 36 36 38 38 37 39 42 44 46 47 46 45 44 45 46 47 49 51 53 54 55 54 54 53 51 49 48 46 45 43 43 44 47 48 48 49 51 52 51 50
31 33 33 33 33 34 35 36 39 42 43 44 44 43 43 43 43 43 45 46 48 50 51 52 52 52 51 51 50 49 49 48 48 48 48 50 51 50 51 51 52 53 51
30 32 33 33 34 34 36 39 41 40 37 37 38 37 37 37 39 40 41 42 43 45 46 48 49 50 50 50 50 49 48 49 50 51 52 53 53 52 52 52 53 53 53

GEFSGL_500_meanwind_006.txt.gz
Wind_Speed
17 18 18 19 20 22 24 25 26 27 28 29 29 29 30 31 33 34 34 33 33 33 31 30 30 30 29 28 26 22 19 19 18 17 17 16 14 12 9 8 6 4 6
19 20 22 22 23 24 26 27 28 28 28 29 29 29 29 29 30 30 30 31 31 31 29 29 30 31 30 28 26 24 21 21 21 20 18 17 15 12 10 8 8 7 8
23 24 25 25 25 27 28 29 31 31 32 32 32 32 31 29 28 28 28 29 29 30 29 28 30 31 31 29 28 26 24 23 23 21 19 18 17 15 12 11 11 11 11
27 27 27 28 29 29 30 31 32 33 34 34 34 34 32 30 28 28 28 28 28 28 28 27 28 30 30 29 28 27 25 25 24 22 20 20 19 17 15 14 14 15 15
31 31 32 33 34 35 35 35 36 35 36 37 36 34 32 32 31 29 28 28 26 25 24 24 26 27 28 28 28 26 24 24 24 24 23 22 20 19 17 16 16 17 18
34 35 36 37 38 39 39 40 40 39 38 37 36 35 34 33 32 30 29 28 28 27 25 24 25 26 26 26 27 26 24 22 22 23 23 23 22 21 20 18 18 18 18
37 38 40 41 41 42 42 41 41 40 39 37 36 35 35 34 33 32 31 29 29 29 28 27 27 28 28 28 29 28 28 26 26 26 23 21 21 21 21 20 20 20 20
38 40 42 44 45 45 45 43 41 40 40 38 36 34 33 33 33 32 30 28 28 28 27 27 27 28 28 28 29 29 29 29 30 30 30 27 25 24 25 26 25 24 24
37 38 40 41 42 42 42 42 41 40 40 39 36 34 33 33 33 33 32 30 30 29 28 28 28 27 27 28 28 29 29 29 31 32 32 31 29 28 29 30 30 29 28
32 33 33 33 33 33 33 34 35 36 37 38 38 37 37 37 37 36 36 35 33 32 31 31 31 30 29 29 29 29 30 30 31 32 33 32 31 31 31 31 31 31 31
23 23 24 24 24 25 26 27 29 31 32 32 33 35 36 38 40 40 40 40 38 36 35 35 35 34 34 34 33 33 32 32 32 32 33 34 34 35 35 36 35 34 34
13 14 15 17 19 21 23 25 26 26 26 25 27 29 30 32 35 39 41 43 43 43 41 39 39 38 37 37 36 35 35 35 35 35 35 35 36 37 38 39 39 38 37
17 17 17 18 19 20 21 22 23 23 22 23 24 27 28 30 31 34 37 40 43 45 45 45 43 42 41 40 40 38 37 37 37 37 38 39 39 38 38 40 41 41 39
19 19 19 20 21 21 23 24 25 25 24 24 24 25 26 27 28 29 30 33 36 41 45 47 46 45 44 43 42 42 42 40 39 38 39 40 40 40 39 39 40 42 42
21 21 22 22 23 24 26 28 30 30 30 29 29 29 29 30 30 29 29 28 29 30 32 35 37 39 40 41 41 41 41 41 41 40 40 40 40 39 39 38 38 38 39
25 27 28 28 28 29 31 32 34 35 35 36 36 36 36 36 36 34 33 32 31 31 32 32 32 32 33 34 36 36 36 36 37 37 38 39 40 39 38 38 38 37 36
23 25 26 27 28 30 32 35 37 38 39 40 40 40 40 41 41 40 38 37 36 36 36 37 36 35 34 34 34 33 34 34 35 36 37 37 38 39 39 38 37 38 38
22 23 24 25 26 28 30 33 35 37 38 39 40 41 42 43 44 44 43 43 43 43 43 43 43 42 41 40 40 40 39 38 37 36 38 38 38 39 39 39 38 39 40
22 24 25 26 28 29 29 30 32 33 35 37 38 39 40 41 42 43 44 46 47 47 47 48 48 47 46 46 45 44 44 43 42 40 39 39 40 41 42 41 41 41 41
21 23 25 26 28 29 30 31 31 33 34 36 38 40 41 42 42 42 43 45 47 49 50 50 50 49 49 49 49 49 49 49 48 48 46 44 44 44 44 45 45 45 45
20 21 23 25 27 29 31 32 34 35 35 36 38 39 41 42 43 44 44 44 45 47 49 51 52 52 52 52 53 53 52 52 52 51 51 50 49 49 48 48 48 48 48
21 23 25 27 30 32 34 35 35 36 36 36 36 36 37 39 40 42 43 45 45 46 47 48 50 52 53 54 55 54 53 52 51 51 50 51 51 50 50 50 50 51 51
25 26 27 29 32 33 34 35 36 37 37 37 37 37 37 37 37 38 39 41 43 45 47 49 50 51 52 53 53 53 53 52 51 51 50 49 49 49 50 51 52 53 54
28 29 30 31 33 35 36 38 39 40 41 41 40 40 40 40 40 40 41 43 44 46 47 49 50 50 51 52 52 51 51 51 51 51 51 51 50 50 50 50 51 53 54
30 31 32 34 36 39 40 41 42 42 42 42 41 41 41 41 40 40 41 41 41 42 42 42 43 45 46 48 49 50 50 50 50 51 51 52 53 52 52 51 51 51 51
32 32 33 36 38 41 42 42 42 43 42 42 42 41 41 40 38 37 37 36 36 35 35 34 35 36 38 41 44 46 48 49 50 51 52 52 53 54 54 54 54 53 52

GEFSGL_500_meanwind_012.txt.gz
Wind_Speed
33 33 32 31 29 27 26 26 26 26 26 27 27 28 29 30 30 31 31 31 31 30 30 30 30 31 31 31 31 31 31 30 29 28 26 24 22 21 19 18 16 15 14
31 31 30 28 27 26 26 26 26 26 26 27 27 28 29 30 30 30 31 31 31 30 30 29 30 30 31 31 31 31 31 31 29 29 28 26 24 23 21 18 16 15 13
32 31 30 28 27 26 26 26 27 28 29 29 30 30 31 31 31 31 32 33 33 33 32 31 30 30 30 30 30 30 31 31 30 30 30 28 26 24 23 20 18 16 14
33 33 32 31 30 29 28 28 28 29 30 31 31 31 32 32 32 32 33 34 35 35 34 33 31 31 31 31 31 31 31 31 31 32 32 30 29 27 25 22 21 18 17
33 34 34 35 35 34 33 32 32 32 33 34 34 34 34 34 34 34 35 35 35 35 35 34 33 32 32 32 31 31 30 31 32 33 32 31 31 30 28 25 23 21 19
36 36 37 38 39 40 40 39 38 38 39 39 39 38 39 39 38 37 37 37 36 35 35 35 34 33 32 31 30 29 28 29 30 32 32 32 32 31 29 27 25 23 21
36 38 39 41 42 43 44 44 44 45 45 45 44 44 43 43 41 40 39 38 36 35 35 35 35 34 33 31 30 28 28 29 30 31 32 32 31 29 28 28 27 27 24
36 38 40 42 44 45 46 47 48 49 49 49 48 48 48 46 44 41 39 37 36 35 34 34 34 34 33 32 32 31 30 31 32 33 33 33 34 31 27 26 26 26 25
33 35 37 40 42 43 45 47 48 49 49 48 48 47 47 46 44 42 40 38 37 35 33 33 33 34 33 33 33 33 33 33 34 35 35 35 34 33 33 30 27 24 24
31 32 34 36 38 39 40 41 42 42 42 41 39 39 38 38 39 39 39 38 38 36 35 34 34 34 34 34 34 34 34 34 34 34 34 34 33 32 32 32 31 29 26
26 27 28 29 30 30 30 31 31 31 31 31 30 30 30 32 33 34 36 37 38 38 37 37 37 37 37 36 36 36 36 35 34 34 33 33 32 32 31 31 31 31 31
21 21 21 20 20 19 19 19 20 22 23 23 23 24 25 26 28 29 31 33 36 37 38 38 38 39 39 39 38 38 38 38 37 36 35 34 34 33 33 32 32 32 32
18 18 18 18 18 18 18 18 18 19 20 20 21 21 21 22 22 23 25 26 28 31 33 36 37 39 40 41 40 40 40 40 40 39 39 38 37 36 36 35 34 33 33
16 17 17 18 19 20 20 21 21 22 22 23 23 23 24 24 23 23 23 23 23 24 24 26 28 30 33 36 38 40 42 42 42 42 41 41 41 40 38 37 36 36 35
17 17 18 19 20 21 22 23 24 24 25 26 27 28 29 30 30 30 29 28 28 27 26 26 26 26 27 28 30 33 36 38 39 41 42 43 43 42 42 41 39 38 38
19 19 20 21 22 24 25 26 27 28 29 30 31 32 34 35 36 36 36 35 34 33 33 32 32 31 30 29 28 27 27 28 30 32 35 37 39 40 41 41 40 39 39
18 19 20 21 22 23 25 26 27 28 30 31 33 34 36 37 39 40 41 41 41 40 40 39 38 37 36 35 34 33 32 30 28 28 28 29 30 32 33 34 35 36 37
15 17 19 20 22 23 24 26 27 28 30 31 32 33 35 37 39 40 41 42 43 44 44 44 44 43 42 41 40 40 39 37 36 34 32 31 31 31 31 31 32 33 34
15 16 18 20 21 23 24 25 26 28 29 30 32 33 34 36 38 39 40 41 42 44 45 46 46 47 47 47 47 47 47 46 44 42 41 39 38 36 35 34 34 33 33
15 16 18 20 22 23 24 26 27 28 29 30 32 33 35 36 38 39 40 40 41 43 44 45 47 48 49 50 51 52 52 52 51 50 49 47 45 44 42 41 39 38 37
18 18 19 21 22 23 24 25 27 28 29 30 32 34 34 37 38 39 40 41 41 42 44 45 46 47 48 50 51 52 53 55 55 55 54 53 52 50 49 47 46 45 43
19 19 19 20 21 22 23 24 26 27 29 32 34 37 37 38 39 39 40 41 41 41 42 43 44 46 47 47 49 50 52 53 54 54 54 55 54 54 53 53 52 51 49
18 18 19 20 22 23 25 26 27 29 32 35 37 39 40 40 39 39 38 38 39 39 39 40 41 43 44 45 46 47 49 51 52 52 53 53 53 54 54 54 54 53 52
18 19 20 22 24 26 27 28 30 33 36 39 40 41 41 40 39 37 36 36 36 37 37 38 40 41 42 43 44 45 45 46 48 49 50 51 51 52 52 53 53 53 53
19 20 22 24 26 28 29 31 34 37 39 40 40 40 39 37 35 34 33 32 32 33 33 34 36 38 39 40 42 43 43 45 46 47 49 51 52 52 52 53 53 53 52
21 22 23 26 28 30 31 33 35 38 39 39 39 37 36 34 32 31 30 29 28 28 28 28 30 31 33 35 36 37 39 40 42 43 45 47 49 51 51 52 53 53 53

GEFSGL_500_meanwind_018.txt.gz
Wind_Speed
46 45 45 44 44 42 41 40 39 37 36 34 33 32 32 31 31 32 34 33 31 29 28 26 24 22 22 22 23 24 25 25 25 26 27 26 24 22 21 20 20 20 20
41 41 40 40 39 37 36 35 35 34 33 31 31 30 30 30 29 28 26 26 25 24 23 23 22 22 23 23 23 24 24 25 24 24 25 25 24 23 21 21 21 20 20
39 39 38 37 36 35 34 34 33 33 32 31 30 29 29 28 27 27 26 26 25 24 23 23 24 24 25 25 25 26 26 25 25 24 24 25 25 24 23 22 22 21 20
37 36 36 35 35 34 34 34 34 34 33 32 32 31 30 29 28 27 27 26 26 26 26 26 26 27 27 27 27 28 28 27 26 25 25 25 25 24 24 24 23 22 21
34 33 33 33 33 34 34 35 35 36 36 36 36 35 34 33 32 31 30 29 30 30 30 30 30 30 30 29 29 29 29 29 28 27 26 26 25 25 25 26 25 25 24
32 31 32 32 33 34 35 36 37 38 38 39 39 40 40 39 39 38 37 36 35 35 35 35 34 34 34 33 32 31 31 30 29 28 27 27 26 26 25 26 26 26 27
32 32 32 33 34 35 36 37 38 38 39 40 41 42 43 43 43 43 43 42 42 41 41 40 39 38 37 36 35 33 32 31 30 29 28 27 27 26 26 26 27 27 28
30 31 31 33 34 35 36 37 38 39 40 41 42 43 44 44 45 45 45 45 45 44 44 43 42 41 40 39 37 35 34 33 32 31 30 30 29 28 28 28 29 29 29
28 29 30 31 32 33 34 35 36 37 39 39 40 40 41 41 42 43 43 43 42 42 42 41 41 41 40 39 38 37 36 35 34 34 34 33 33 32 32 32 31 31 31
26 26 27 28 29 31 32 33 34 35 35 35 35 36 37 36 36 36 36 36 36 37 37 37 37 37 38 38 38 38 38 37 37 37 36 36 36 36 35 34 33 32 31
22 24 25 26 28 29 30 30 30 30 30 30 30 30 30 29 29 29 29 30 30 31 32 31 33 35 36 37 38 39 40 39 39 39 38 37 36 36 35 35 34 34 32
22 23 24 25 25 26 26 26 26 26 25 25 25 25 24 24 24 24 24 25 25 26 26 27 28 30 32 34 37 39 40 41 40 40 39 38 37 37 37 36 35 34 34
21 22 22 22 23 23 23 23 24 24 24 24 24 25 25 25 25 24 25 25 26 25 25 24 25 25 27 29 31 34 36 38 40 41 41 41 40 39 39 39 38 37 36
18 19 19 20 21 21 21 22 22 23 24 25 26 26 27 28 28 29 28 28 28 28 27 27 26 26 25 25 27 28 31 33 35 36 39 41 42 41 40 39 38 37 37
15 16 17 18 19 20 21 22 23 25 26 27 28 30 30 30 31 32 33 32 33 33 32 32 32 31 31 30 29 28 28 28 28 30 31 33 36 39 41 41 41 40 40
12 13 15 16 18 19 21 22 23 25 27 28 30 31 31 32 33 34 35 36 37 37 37 37 37 37 36 35 34 33 33 32 30 29 27 27 28 30 33 36 38 40 41
13 14 15 16 17 18 20 21 23 25 27 29 30 31 32 33 33 34 35 36 37 38 38 39 39 39 39 38 37 37 37 37 36 34 32 30 28 27 26 27 29 32 35
14 15 16 16 18 19 20 22 24 25 26 27 28 28 29 30 31 32 32 34 35 36 37 38 39 40 40 40 39 39 39 39 39 38 37 36 35 33 30 28 27 26 27
16 16 17 18 19 20 21 23 25 26 28 29 28 26 26 27 28 29 30 31 33 34 36 37 38 39 40 40 41 41 41 42 42 42 42 41 40 39 38 36 33 30 29
17 18 18 18 19 19 20 22 24 25 26 27 29 28 28 28 30 31 32 33 33 34 34 35 36 38 39 40 40 40 41 42 43 44 45 45 45 44 43 42 40 38 35
18 18 18 18 19 19 20 21 23 24 25 26 27 28 29 31 32 34 35 35 35 35 34 34 35 36 37 38 38 39 40 41 42 44 45 46 47 47 47 47 46 45 42
18 18 19 19 19 19 19 21 22 23 24 25 27 28 28 30 32 33 34 34 34 33 33 33 33 34 34 34 35 36 37 38 39 40 41 43 45 46 47 49 50 50 49
20 19 19 19 19 19 19 21 22 24 25 26 28 29 30 32 33 33 33 33 33 32 32 31 31 31 32 31 32 33 34 35 36 37 38 40 42 44 46 48 50 51 51
21 21 20 20 19 20 21 22 23 25 26 28 29 30 32 33 34 34 34 32 32 32 31 31 30 30 29 29 29 29 30 31 33 34 35 37 39 41 43 45 46 48 49
22 21 21 20 21 21 22 24 25 26 28 29 30 31 33 34 35 35 35 33 32 31 31 31 30 30 29 28 27 26 26 27 28 30 31 33 35 37 39 41 42 44 45
22 22 21 21 21 22 23 25 27 28 29 30 31 33 35 35 36 36 36 34 33 32 31 30 30 30 29 27 26 25 24 24 24 26 27 29 31 33 35 37 39 40 42

GEFSGL_500_meanwind_024.txt.gz
Wind_Speed
44 44 44 43 43 43 43 42 41 39 38 36 34 33 31 30 28 27 27 26 26 25 25 26 27 28 30 31 32 33 32 29 27 26 24 22 22 22 22 22 22 22 21
38 38 38 39 39 39 38 37 36 36 35 34 33 32 31 30 29 27 26 26 25 24 23 23 23 23 24 26 26 26 26 25 24 23 22 21 21 20 21 21 21 21 20
34 34 34 34 35 35 34 34 34 34 34 34 33 32 32 31 30 29 28 27 26 25 24 23 23 22 21 22 23 23 23 22 21 20 21 20 20 20 20 20 20 20 20
31 31 31 32 32 32 31 32 33 33 33 33 33 32 32 32 32 31 31 30 29 28 27 26 25 24 23 22 22 22 22 21 21 21 22 21 21 21 21 20 20 20 21
30 30 31 31 31 30 30 31 31 31 31 31 32 32 32 32 32 32 32 32 33 32 31 30 30 29 28 27 26 25 25 24 24 24 24 24 23 23 23 23 22 22 21
30 30 30 30 29 29 29 29 30 30 30 31 32 32 33 33 33 33 33 33 34 34 34 34 34 33 33 32 31 30 29 28 27 27 27 26 25 25 25 24 24 24 24
28 28 28 28 28 28 29 29 29 29 30 30 31 31 31 31 32 32 33 33 34 34 34 34 34 34 35 35 35 34 34 33 32 31 30 29 28 27 27 26 26 26 27
24 25 26 26 26 27 27 27 27 27 27 28 28 29 30 30 31 31 31 32 32 33 33 34 34 35 35 36 36 36 36 36 35 34 33 32 31 31 30 29 28 29 29
21 22 22 22 21 21 21 22 22 24 25 25 26 27 28 28 29 29 30 30 30 30 31 32 33 33 34 34 35 36 37 37 36 36 36 35 34 34 34 34 33 32 32
19 19 19 18 18 18 19 19 21 22 22 23 24 24 25 26 27 27 27 26 27 28 28 29 30 31 31 32 33 35 36 37 37 37 37 37 37 37 37 38 38 38 38
15 15 15 15 15 16 16 17 18 19 20 20 21 22 22 23 23 24 24 25 25 26 26 27 28 28 29 30 30 31 32 34 36 37 37 38 39 39 40 41 42 42 42
12 12 12 12 13 14 14 15 16 16 17 18 19 20 20 21 23 24 25 25 26 27 27 27 28 28 28 28 29 29 30 31 32 33 35 36 38 40 41 41 42 43 44
10 10 10 11 11 11 12 13 13 14 15 16 18 20 21 22 24 25 27 28 29 29 29 29 29 29 30 29 29 29 29 29 29 29 31 32 35 37 39 40 42 43 43
8 8 8 8 8 9 10 11 12 13 15 17 18 20 22 23 25 26 28 29 29 30 30 30 30 30 30 31 32 32 31 30 30 29 29 29 31 33 35 38 40 42 42
6 7 7 7 8 9 10 11 12 14 15 17 18 20 22 24 25 26 26 27 27 28 29 29 29 30 30 31 32 32 33 33 33 33 32 31 30 30 31 33 35 38 41
7 8 8 9 9 10 11 12 14 15 16 18 19 21 22 23 23 24 24 25 25 25 26 27 27 28 29 30 32 33 34 34 35 35 35 35 34 32 31 31 31 32 33
10 10 11 11 12 12 13 13 14 15 17 18 20 21 21 22 22 23 23 23 23 24 25 26 26 27 28 29 30 31 32 34 35 36 36 37 37 36 35 33 32 31 30
14 14 14 14 14 14 14 14 15 15 16 18 19 20 21 21 22 22 22 23 24 25 25 26 26 26 27 28 29 30 31 33 35 36 38 38 39 39 38 38 36 34 32
17 17 17 16 16 16 16 15 15 15 16 17 18 19 20 20 21 21 22 24 24 25 26 26 27 26 26 27 27 28 29 30 32 35 38 40 41 41 41 41 40 39 37
20 19 19 18 18 17 17 16 15 15 16 17 18 19 20 21 22 23 24 26 26 27 28 28 28 27 26 26 26 26 27 28 29 31 34 37 40 42 43 44 43 42 41
22 21 21 20 19 19 18 18 17 17 17 18 19 20 21 22 24 25 26 27 28 29 29 29 29 29 28 28 27 27 26 26 27 28 30 33 36 39 42 44 45 45 45
23 23 22 22 21 20 20 20 20 19 19 19 20 21 22 24 25 26 28 29 30 31 32 32 32 31 30 29 29 28 28 27 27 28 28 29 32 34 37 40 43 45 47
25 24 24 23 23 22 21 21 21 21 21 21 22 23 24 25 27 28 30 31 32 33 33 33 34 33 32 30 30 30 29 28 27 27 27 27 27 29 32 36 39 41 44
26 25 25 24 24 23 22 22 22 22 22 23 24 25 26 27 28 29 31 33 34 35 35 35 35 34 33 31 30 30 29 29 28 27 26 26 26 26 28 31 34 37 40
27 26 25 25 24 24 24 23 23 23 23 24 25 26 27 28 29 30 32 34 36 38 38 38 37 35 33 32 32 31 30 29 28 27 26 25 25 25 26 27 30 33 36
27 26 26 25 24 24 24 24 24 24 24 25 25 26 27 28 29 31 33 35 38 38 39 38 37 35 34 33 33 32 31 30 29 27 26 25 25 24 25 26 27 30 32

GEFSGL_500_meanwind_030.txt.gz
Wind_Speed
45 44 42 40 40 41 40 39 39 39 39 38 37 36 35 34 33 32 31 30 29 29 28 28 28 27 27 27 26 27 26 27 28 30 31 32 32 31 32 32 31 31 32
41 40 39 37 36 37 38 37 38 38 36 35 34 34 33 32 32 31 30 30 29 29 29 29 29 29 28 28 27 27 26 26 26 26 27 27 27 28 29 29 28 28 29
35 35 35 35 34 33 33 34 34 34 33 33 32 32 31 31 31 30 30 30 30 30 30 30 31 31 30 30 29 29 28 27 25 24 24 24 23 24 25 25 25 25 25
32 33 33 31 30 30 31 31 30 30 30 30 31 30 30 30 30 30 30 30 30 31 31 31 32 32 32 32 32 31 31 30 28 26 25 24 23 23 22 23 23 23 24
28 29 29 28 28 29 29 28 28 28 28 29 29 29 29 30 30 30 30 31 31 32 32 33 33 34 34 34 34 34 34 33 32 30 29 28 26 25 24 24 24 24 24
24 24 25 26 26 27 27 27 27 28 28 29 29 29 29 29 30 30 31 31 32 32 33 33 33 34 35 35 35 36 36 36 36 34 33 31 30 29 28 27 26 25 25
23 23 24 24 25 26 26 27 27 27 28 28 28 28 28 28 29 29 30 31 31 32 32 33 33 34 34 35 35 36 37 37 38 38 37 36 34 33 32 31 30 28 28
22 22 23 23 24 24 25 25 25 26 26 26 26 26 26 26 27 27 28 29 29 29 30 30 31 32 33 34 34 35 36 37 38 39 39 39 38 37 35 34 33 31 31
19 20 21 22 22 22 22 22 22 23 23 22 22 22 22 22 23 24 24 24 24 25 26 28 29 30 31 32 33 33 34 35 36 38 39 40 40 40 39 38 37 35 34
16 17 18 19 20 20 19 18 18 18 18 18 18 18 19 19 20 20 21 22 23 24 25 26 28 29 30 30 31 32 32 33 34 35 36 38 39 40 40 40 40 39 39
13 13 14 15 15 16 16 15 15 15 15 15 15 16 16 16 17 18 19 21 22 24 25 26 27 28 29 30 30 30 30 31 31 32 33 35 36 37 38 40 41 41 41
10 10 11 11 11 12 13 13 13 13 13 13 14 14 14 15 16 17 18 20 22 24 25 27 28 29 30 30 30 30 30 30 30 30 31 32 33 34 36 37 39 41 43
8 8 9 9 10 11 11 11 12 12 12 12 13 13 14 14 15 16 18 20 22 24 26 27 28 29 29 29 30 30 30 30 30 30 31 31 31 32 33 34 36 38 41
7 8 9 9 9 10 10 11 11 12 12 12 13 13 13 14 15 17 19 21 23 24 25 26 26 26 26 27 27 28 28 29 29 30 30 31 31 31 32 32 34 35 38
9 9 9 10 10 10 11 11 12 12 12 13 13 13 14 15 16 18 20 21 22 24 25 25 25 25 25 26 26 26 26 27 28 28 29 29 30 31 32 32 33 34 35
10 11 11 11 11 12 12 13 13 13 13 13 13 14 14 15 17 18 20 21 23 24 25 25 25 25 25 26 26 26 26 26 26 27 27 28 29 30 31 32 33 34 35
13 13 13 13 13 13 14 14 14 14 14 14 14 14 15 16 17 18 20 22 23 24 25 25 25 26 26 27 27 28 27 26 26 26 26 26 27 28 29 31 33 34 35
17 16 15 15 15 15 15 16 16 16 15 15 15 15 15 16 17 18 20 22 23 24 25 25 26 27 27 28 28 28 28 28 27 26 25 25 25 26 27 29 31 33 35
20 19 19 18 18 18 18 18 17 17 17 17 16 16 16 17 18 19 21 22 24 24 25 26 27 28 28 28 28 28 28 29 28 27 26 26 25 25 25 26 28 30 32
22 22 21 21 21 20 20 20 19 19 19 18 18 17 17 18 19 20 22 23 24 25 26 26 28 29 29 29 29 29 29 29 29 28 27 26 26 26 25 26 26 28 30
24 24 23 23 22 22 22 21 21 21 20 20 19 19 18 19 20 21 23 24 25 25 27 28 29 30 31 31 31 31 31 30 29 28 27 27 27 27 26 25 26 26 28
24 24 25 25 24 24 23 23 22 22 22 21 21 21 20 20 21 22 23 25 25 27 28 30 31 31 33 33 34 33 33 32 30 29 29 28 28 27 26 26 25 26 26
22 23 24 25 26 25 24 24 23 23 23 22 22 22 22 22 22 23 24 25 26 27 28 30 32 33 34 35 36 35 34 33 32 31 30 30 29 28 27 26 26 25 26
22 22 22 24 25 25 25 25 24 24 23 23 22 23 23 23 23 23 24 25 26 27 29 31 33 34 35 36 37 36 35 34 33 32 31 31 30 29 28 26 26 26 25
22 22 22 23 23 24 25 24 24 24 24 23 23 23 24 24 24 24 24 25 26 27 29 31 33 35 36 37 37 37 36 35 33 32 32 31 30 29 28 27 26 25 25
24 23 22 22 22 22 23 24 24 23 23 23 23 24 24 24 24 24 24 24 26 28 30 32 34 35 37 37 38 38 37 36 34 33 32 31 29 28 28 27 26 25 24

GEFSGL_500_meanwind_036.txt.gz
Wind_Speed
44 44 43 43 44 44 44 43 43 44 44 42 40 40 38 37 36 36 35 35 34 33 33 33 32 33 33 33 33 33 33 33 33 32 33 32 32 32 31 31 32 33 34
37 37 37 38 38 39 39 40 40 41 40 40 40 39 37 36 36 35 34 34 33 32 32 32 32 33 33 34 34 35 35 35 35 35 35 35 34 33 32 30 29 29 31
32 32 32 31 31 33 35 36 36 36 35 34 36 37 37 36 35 34 33 32 32 31 31 31 32 33 33 34 35 36 36 36 36 36 36 37 36 35 33 31 30 29 28
26 25 26 27 27 27 29 30 30 30 30 30 32 32 33 33 32 31 31 30 30 30 30 31 32 33 34 34 35 36 37 37 38 38 38 38 37 36 35 33 32 30 29
22 22 21 22 24 23 23 22 23 25 26 27 28 27 27 27 27 27 27 27 28 28 29 30 31 32 33 34 35 36 36 37 37 37 38 38 38 37 36 35 34 33 31
20 20 19 19 19 19 19 18 17 19 21 22 23 23 22 22 23 23 23 24 25 27 27 28 29 30 31 32 33 34 35 36 37 37 38 38 38 38 38 37 36 35 34
20 18 17 16 16 15 14 14 14 14 15 15 16 17 18 19 19 20 21 22 23 24 25 26 26 27 28 29 31 32 33 34 34 36 37 38 38 38 38 37 37 37 36
18 17 15 15 14 13 13 12 13 13 14 14 14 15 16 16 17 18 19 19 20 20 21 21 22 23 25 27 28 29 31 32 33 34 35 36 36 37 37 37 37 37 36
16 14 14 13 12 12 12 12 12 12 13 13 13 13 14 14 15 16 16 16 17 18 18 19 21 23 25 26 27 28 29 30 31 33 34 34 35 35 35 35 36 36 36
14 13 12 12 11 11 12 12 12 12 11 11 11 12 12 13 13 13 14 14 15 15 17 18 20 21 23 24 26 28 29 30 31 31 32 32 33 33 33 33 33 34 34
12 11 11 10 11 11 11 11 11 11 11 11 12 12 12 12 12 12 13 13 13 14 16 17 19 21 22 24 26 27 28 29 29 30 30 30 30 30 30 30 30 31 31
11 10 10 10 9 9 10 10 11 11 11 11 11 11 11 12 12 12 12 12 12 14 15 17 18 20 22 24 25 26 26 27 27 27 28 28 28 28 28 28 27 28 29
11 10 10 9 9 9 8 9 9 10 10 11 10 10 11 11 12 12 11 11 12 14 15 16 18 20 22 23 24 25 25 25 26 26 26 26 25 26 26 26 26 27 28
12 11 11 10 10 9 9 9 9 10 10 11 11 12 12 12 12 12 12 12 13 14 15 16 18 20 22 23 24 24 25 25 25 25 25 25 24 24 24 24 25 25 26
14 13 12 11 11 11 11 11 11 11 12 12 12 13 13 13 13 12 13 13 13 14 15 17 18 20 22 23 24 24 24 24 25 25 25 24 24 23 23 23 23 24 25
17 16 15 14 13 13 13 13 13 13 13 13 13 13 13 13 14 14 14 14 14 14 15 17 19 20 22 24 25 25 25 25 26 25 25 24 24 23 22 22 22 23 24
21 19 18 17 17 16 15 15 15 14 14 14 14 15 15 15 15 15 15 15 15 15 16 17 19 20 22 24 25 26 26 26 27 26 26 25 24 24 23 23 22 22 23
24 23 22 21 20 19 18 18 17 17 17 17 17 17 17 17 17 16 16 16 16 16 16 18 19 21 22 24 25 26 27 27 27 27 27 26 25 24 24 23 23 23 23
26 25 25 24 23 22 21 21 21 20 20 20 19 19 19 18 18 18 18 17 17 17 17 18 19 21 23 24 25 26 27 28 28 28 28 27 26 25 24 24 23 23 23
27 26 26 26 25 25 25 24 24 23 23 23 22 22 21 20 20 20 19 19 19 18 18 19 20 21 22 24 25 26 28 28 29 29 29 27 26 26 25 24 24 24 23
26 26 26 26 26 26 27 27 26 26 25 25 24 24 23 23 22 22 22 21 21 20 20 20 20 21 22 23 25 26 28 29 30 30 30 29 28 27 26 25 25 24 24
25 25 25 26 26 26 26 27 27 27 27 27 26 25 25 24 24 24 23 23 22 22 21 21 21 22 22 23 25 27 28 30 31 31 31 30 29 28 27 26 25 24 24
24 23 23 24 24 24 24 25 26 27 28 28 28 27 26 26 25 25 25 24 24 23 22 22 22 22 22 23 25 27 29 31 32 33 33 32 31 30 29 27 26 25 24
24 23 23 24 24 23 23 23 23 25 26 27 28 27 27 26 26 25 25 25 24 23 23 22 22 22 22 23 25 27 29 31 33 34 34 34 33 32 30 28 27 25 24
26 24 23 23 22 22 22 22 22 23 24 25 26 27 27 27 26 26 25 25 25 24 23 22 22 22 22 23 26 28 31 32 34 35 35 35 34 33 31 29 27 26 24
28 26 25 24 23 22 21 21 21 22 22 23 24 25 25 25 25 25 25 24 24 24 22 22 21 21 22 23 26 29 31 33 35 36 37 37 35 33 32 30 28 26 25

GEFSGL_500_meanwind_042.txt.gz
Wind_Speed
41 41 42 43 44 44 45 46 46 46 46 47 46 45 44 43 43 42 42 41 39 37 35 33 33 31 29 28 27 27 28 28 28 29 30 29 30 31 31 32 32 33 33
40 41 41 42 42 41 41 40 40 40 39 38 37 37 38 37 38 37 36 36 36 35 33 32 31 29 29 27 27 26 27 28 28 29 30 31 32 33 33 34 34 35 35
39 39 39 39 38 37 37 36 34 32 31 31 33 33 33 34 34 33 32 33 34 33 31 30 29 27 26 26 26 26 26 27 28 29 30 31 32 33 34 35 36 36 37
37 37 36 35 34 33 33 31 30 29 28 26 26 28 28 29 31 32 31 31 31 30 29 28 26 24 24 25 25 25 26 26 27 29 30 31 32 34 35 36 37 38 38
35 34 33 31 30 30 29 27 25 23 23 20 21 22 23 24 27 28 27 28 28 26 25 23 22 22 23 23 23 23 24 25 26 28 29 31 32 34 35 36 38 39 39
32 31 30 28 27 27 26 23 21 20 19 18 17 17 18 20 22 24 25 24 24 23 21 19 19 20 21 22 21 21 22 23 24 26 28 30 32 34 35 37 38 38 39
29 28 27 25 25 24 22 21 19 17 17 15 14 14 14 15 17 19 19 20 19 18 18 17 17 18 18 18 18 19 20 22 24 26 28 30 32 34 35 37 38 38 38
28 26 24 23 23 21 19 18 16 15 14 13 12 11 11 12 13 15 16 16 17 17 17 16 15 15 15 15 16 17 19 20 22 25 27 29 31 33 34 35 36 36 37
26 24 23 22 21 19 18 17 15 13 12 12 11 11 11 11 12 12 13 13 13 13 12 12 12 13 13 13 14 16 18 20 22 24 27 29 31 33 34 35 35 35 35
25 23 22 21 20 18 17 16 14 13 12 12 11 10 10 10 10 10 10 10 10 10 10 10 10 10 11 12 14 15 17 20 22 25 27 29 31 31 32 32 33 32 32
26 23 21 20 19 18 17 15 14 14 13 12 11 10 9 9 10 9 9 9 8 8 8 9 9 10 11 12 14 15 18 20 23 25 27 28 29 29 29 30 30 30 29
25 23 21 20 19 18 17 16 15 14 13 12 11 10 9 8 8 8 9 9 8 8 8 9 9 10 11 12 14 16 18 20 23 25 27 28 28 28 28 28 28 28 27
26 24 22 20 19 18 17 15 14 14 12 11 11 10 9 9 9 9 9 9 9 9 9 10 10 11 12 13 15 17 19 21 23 25 26 27 28 28 28 27 27 26 25
27 25 23 21 19 18 17 16 14 13 12 11 10 9 9 9 9 9 9 9 10 10 10 11 11 12 13 14 16 17 19 21 23 25 26 27 28 28 28 28 27 25 24
28 27 25 23 21 20 19 17 16 14 13 12 11 10 10 10 10 11 11 11 11 12 12 12 13 13 14 15 16 18 19 21 22 24 26 27 28 28 28 28 27 26 24
29 29 27 25 23 21 20 19 18 16 15 14 14 13 13 13 13 13 13 13 13 13 13 14 14 15 16 16 17 18 19 21 23 24 26 27 28 28 28 28 27 26 24
29 30 29 28 26 24 22 20 19 18 17 16 15 15 14 14 14 14 14 14 14 14 15 15 16 16 17 18 18 19 20 21 23 25 26 27 28 28 28 28 27 26 24
29 30 30 30 28 26 24 23 21 20 19 18 17 16 16 16 16 16 16 16 16 16 17 17 17 18 18 19 19 20 21 22 23 25 26 28 29 29 29 28 28 26 25
30 30 31 31 30 29 27 25 24 22 21 19 18 18 18 18 18 18 18 18 18 18 18 18 19 19 20 20 21 21 21 22 23 25 26 28 29 30 29 29 28 27 25
32 31 32 32 31 30 29 27 26 24 23 22 20 20 20 19 19 20 20 20 20 20 20 20 20 21 21 21 21 21 21 22 23 24 25 27 29 30 30 30 29 28 27
32 32 32 32 31 30 29 27 26 25 24 23 22 22 22 22 21 21 21 21 22 22 22 22 22 22 22 22 22 22 22 22 22 23 25 27 29 30 31 31 31 30 29
32 32 31 31 31 30 29 28 27 25 25 24 23 22 23 23 23 22 22 22 23 23 23 23 23 23 23 23 22 22 22 22 22 23 24 27 29 30 32 32 33 32 31
34 32 30 29 29 28 28 28 27 26 25 24 23 21 21 23 23 23 23 23 23 23 23 24 24 24 24 23 23 23 22 22 22 23 24 26 29 31 33 34 35 34 32
36 33 29 28 26 25 24 24 24 24 23 22 22 20 19 21 22 22 22 22 23 23 23 23 23 24 23 23 23 23 23 23 23 23 25 27 29 32 34 35 36 35 34
36 33 30 27 25 24 23 22 22 21 20 20 20 19 18 18 20 21 21 21 21 21 21 21 21 22 22 22 22 22 22 23 24 25 27 28 30 32 35 36 37 37 35
36 35 31 27 25 23 21 21 20 19 18 18 18 17 17 17 17 18 19 19 19 19 19 19 19 20 20 21 21 21 21 23 25 27 29 31 32 34 36 37 38 38 36

GEFSGL_500_meanwind_048.txt.gz
Wind_Speed
37 37 37 38 38 38 39 40 41 42 42 42 42 42 42 40 39 38 38 38 37 38 36 36 37 36 34 32 31 30 30 29 28 28 27 26 25 25 25 26 27 27 28
37 37 37 37 37 37 37 38 39 39 40 39 39 39 38 37 36 35 35 34 33 32 32 33 33 33 32 32 31 30 28 27 27 27 26 26 25 25 25 26 26 27 28
38 37 36 36 35 35 35 35 36 36 36 36 36 35 34 33 32 32 30 29 27 26 26 27 29 30 29 29 27 27 26 26 25 24 23 23 24 24 24 25 26 27 28
37 37 36 36 35 34 33 33 33 32 32 32 31 30 29 27 27 25 24 25 25 23 23 24 26 27 27 27 26 25 24 24 22 21 21 22 22 23 24 25 26 27 28
38 37 36 35 34 33 32 31 30 29 29 28 26 25 24 24 22 22 22 22 22 22 22 22 23 24 25 25 24 22 21 20 19 19 20 20 21 22 22 23 25 26 28
37 36 35 34 33 31 30 29 28 27 26 24 22 21 21 21 20 19 18 19 20 21 21 21 23 22 22 22 20 18 18 17 17 18 18 18 19 19 21 22 24 25 27
37 36 34 33 32 30 29 28 27 25 23 22 20 18 18 16 15 16 16 15 17 19 20 20 20 19 18 17 16 15 15 15 15 16 16 17 18 19 20 21 23 25 27
38 36 34 33 32 30 28 27 25 23 22 20 18 16 15 14 13 13 13 12 12 13 15 16 16 17 16 15 14 14 14 14 14 14 15 16 17 18 19 21 23 25 27
38 36 35 33 31 30 28 27 25 22 20 18 16 15 14 13 12 12 11 11 11 11 12 13 14 14 14 13 13 12 12 12 12 13 13 14 15 17 19 21 23 26 28
39 37 35 33 31 30 29 26 24 21 19 17 15 14 13 11 11 11 11 11 10 10 11 12 12 12 12 11 11 11 11 11 11 12 12 14 15 17 19 21 24 26 28
40 38 36 34 32 30 28 25 23 21 18 16 14 13 12 10 9 8 9 9 9 9 9 10 10 10 10 10 10 10 10 10 11 11 13 14 15 17 20 22 24 26 28
41 39 38 35 33 30 27 25 23 20 18 16 14 12 11 10 8 8 8 9 9 9 8 8 9 9 9 9 9 9 10 10 11 12 13 14 16 18 20 22 24 26 28
44 41 39 36 33 30 27 25 23 21 19 17 15 13 12 10 9 9 9 9 10 10 10 9 9 9 9 9 9 9 10 11 11 12 13 15 16 18 20 22 24 26 27
45 42 38 35 34 31 29 26 24 22 20 17 16 14 13 12 11 11 11 11 11 10 10 10 10 10 10 10 10 10 11 11 12 13 14 15 17 18 20 22 24 26 28
46 42 39 37 35 32 30 28 25 24 21 19 18 16 15 14 13 12 12 12 12 12 11 11 11 11 11 11 11 11 11 12 12 13 15 16 17 19 20 22 24 26 27
47 43 40 38 35 33 31 29 27 25 23 21 20 18 17 15 14 14 14 14 13 13 13 12 12 12 12 11 11 12 12 13 13 14 16 17 18 19 20 22 24 26 28
44 43 41 38 35 34 33 31 28 27 25 24 22 21 19 18 16 15 15 15 15 14 14 13 13 13 13 12 13 13 13 14 15 15 17 17 17 18 20 22 24 26 28
41 41 40 39 37 35 34 32 30 29 27 25 24 23 21 20 18 17 16 16 15 15 15 14 14 14 14 14 14 14 15 15 16 17 17 17 18 18 20 21 23 26 28
39 39 40 40 39 36 35 34 32 30 28 27 25 24 22 21 19 18 17 17 16 16 15 15 15 15 15 15 15 16 16 17 17 18 18 18 18 18 20 21 23 25 28
37 38 38 38 38 37 35 35 33 31 29 28 26 25 24 22 20 20 19 18 17 16 16 16 16 16 16 16 17 17 17 18 18 19 18 18 18 18 19 21 23 26 28
34 36 36 36 37 37 35 34 33 31 30 28 27 27 25 24 22 21 20 19 18 18 18 17 17 17 18 18 18 18 19 19 19 19 19 18 18 19 20 22 24 27 29
31 34 35 35 36 36 34 34 33 32 30 29 28 27 26 24 23 22 21 20 20 19 19 19 19 19 19 20 20 20 20 20 19 19 19 19 20 20 21 22 24 27 29
30 33 34 34 35 35 34 33 32 31 30 29 28 26 25 24 23 23 22 22 21 20 20 20 20 20 20 20 20 20 20 19 19 19 19 19 19 20 22 23 25 28 30
29 32 34 33 34 34 34 33 31 30 29 28 27 25 24 23 23 22 22 21 21 20 20 20 20 20 20 20 20 20 20 20 19 19 19 19 19 21 22 24 26 28 31
29 31 33 33 33 33 33 33 31 28 27 26 26 25 23 22 21 21 20 20 19 19 19 19 19 19 19 20 19 19 19 19 19 18 19 19 19 21 23 25 27 29 32
29 31 32 32 33 33 32 32 30 28 26 25 25 24 23 21 20 19 19 18 18 18 18 18 18 18 18 18 18 18 18 18 18 18 18 19 20 22 24 27 29 31 33

GEFSGL_500_meanwind_054.txt.gz
Wind_Speed
38 38 38 38 38 37 36 36 36 35 35 35 35 34 34 35 36 36 36 37 36 36 35 35 35 34 33 33 33 32 32 31 30 30 30 29 29 30 31 31 31 31 30
41 41 41 40 40 39 38 37 36 36 35 35 34 33 33 32 33 33 34 34 34 34 34 33 33 31 31 32 31 33 32 31 30 30 29 28 29 29 29 30 30 30 29
45 44 44 43 42 41 40 38 37 36 35 35 33 32 32 31 30 30 31 31 31 30 30 29 29 28 28 29 29 30 29 30 29 29 29 28 28 29 29 29 29 29 29
48 47 46 45 44 43 41 39 37 36 35 34 32 31 30 29 29 28 28 27 27 26 26 26 25 25 26 27 26 26 27 27 28 29 29 28 27 27 28 27 27 27 26
52 50 48 47 45 44 42 40 38 36 35 33 31 30 29 28 27 26 24 23 22 23 23 23 23 23 22 22 23 24 24 24 25 26 26 26 26 25 25 25 24 23 23
56 54 51 49 47 45 43 41 38 36 35 33 30 29 28 27 25 23 21 20 19 20 20 21 20 22 22 20 20 21 22 22 22 23 23 23 22 22 22 22 21 20 20
59 57 55 52 49 46 44 42 39 36 34 32 30 28 27 25 23 21 19 18 17 17 17 18 17 18 20 20 20 20 20 21 22 23 23 22 21 20 19 18 18 18 18
63 60 58 55 51 48 44 42 39 36 34 32 30 28 26 24 22 19 19 17 15 15 15 14 14 15 16 18 19 20 20 20 20 21 20 18 17 15 15 15 15 16 17
66 63 60 56 52 49 45 42 40 37 34 32 30 27 25 23 20 18 17 15 14 13 13 14 14 14 14 15 16 16 17 17 18 18 17 15 13 12 13 13 14 15 17
65 62 59 56 53 49 46 43 41 38 35 32 29 27 24 21 20 18 17 15 14 13 12 12 12 13 13 14 14 14 14 14 15 15 13 12 11 12 12 13 13 14 15
59 57 55 53 51 49 47 44 42 39 36 32 29 26 24 21 20 18 16 15 13 12 11 11 12 14 13 13 14 14 14 14 13 13 12 11 11 11 11 11 12 13 15
51 50 49 49 49 49 48 46 42 39 38 34 30 27 24 22 20 18 16 14 13 12 12 12 12 13 13 14 14 14 14 13 13 12 11 10 10 10 10 11 12 13 14
44 43 43 44 45 47 48 47 44 40 38 35 31 27 25 23 21 18 16 15 13 12 12 12 13 13 14 13 14 13 13 12 11 10 9 9 9 9 10 11 12 13 14
40 40 39 39 41 43 46 48 46 41 39 36 32 29 27 24 22 19 17 16 15 14 13 14 14 13 13 13 13 12 11 10 9 9 9 9 9 9 10 11 12 13 15
38 37 37 38 39 40 43 45 47 42 39 38 35 31 28 26 24 21 19 17 16 16 16 15 14 13 13 12 12 11 11 10 10 9 9 9 9 9 10 11 12 14 15
36 35 34 34 34 36 40 44 46 42 39 38 36 32 29 28 26 23 20 19 18 17 17 16 15 14 13 13 12 11 10 10 10 10 9 9 10 10 11 12 13 14 15
34 32 30 28 28 30 35 41 44 40 39 38 36 33 30 28 26 24 22 21 20 19 18 17 16 15 14 13 12 11 11 10 10 10 10 10 11 11 12 13 14 14 15
32 30 27 24 24 26 31 37 41 40 39 39 37 33 31 30 28 26 24 22 20 19 19 18 17 16 15 14 13 12 11 11 11 11 11 12 12 13 13 14 14 15 16
29 26 24 21 22 24 28 33 37 39 40 40 38 35 33 32 29 27 24 23 22 21 19 18 17 16 16 15 14 13 13 12 12 12 13 13 14 14 14 14 15 15 16
25 22 20 18 20 22 26 30 34 37 38 39 38 35 33 31 28 26 25 24 22 21 19 18 17 16 16 15 15 14 14 14 14 14 15 15 15 16 16 16 16 16 17
20 17 16 16 19 22 25 29 33 35 37 38 36 34 33 31 29 27 26 25 23 21 20 18 17 16 15 15 16 16 16 16 16 16 17 17 17 17 17 17 17 17 18
14 12 13 16 19 22 25 28 32 33 36 37 35 34 34 32 29 27 25 24 22 21 19 18 17 16 16 16 16 16 16 17 17 18 18 18 18 18 18 18 18 18 18
9 10 13 17 19 22 26 29 32 34 34 35 35 34 33 30 28 26 25 23 22 20 19 18 17 16 16 17 17 17 17 18 19 19 19 19 18 18 18 18 18 19 20
7 10 15 18 21 24 28 30 31 33 33 33 33 32 31 29 27 26 24 23 22 20 19 18 17 17 17 17 18 18 18 19 19 19 19 19 19 19 19 19 20 20 21
8 12 16 20 23 26 29 30 30 31 32 32 32 31 30 29 26 25 23 22 21 19 18 18 18 18 18 18 18 18 19 19 19 19 19 19 19 19 19 19 20 21 22
11 15 19 23 26 27 29 30 29 30 31 31 30 30 29 27 25 23 22 21 20 19 18 18 18 18 17 18 18 18 18 18 18 18 18 18 18 19 19 20 21 22 24